Location: Gro�sch�nbrunn
(49.5760°N, 11.8868°E)
Time: 09:47:33
(UTC+00:00)

N. Korean satellite - Pass Details

Date: 04 December 2020
Orbit: 453 x 502 km, 97.2° (Epoch: 16 January)

Event Time Altitude Azimuth Distance (km) Brightness Sun altitude
Rises 04:21:21 0° 19° (NNE) 2,572 10.4 -23.4°
Reaches altitude 10° 04:23:31 10° 27° (NNE) 1,694 9.5 -23.0°
Maximum altitude 04:26:58 39° 98° (E) 752 8.0 -22.5°
Drops below altitude 10° 04:30:26 10° 169° (SSE) 1,699 9.5 -21.9°
Sets 04:32:36 0° 177° (S) 2,582 10.4 -21.6°
